EA1EI-13 Weather Reports


Display with metric or nautical units.
time (UTC)temp
F
wind
direction
speed
MPH
gust
MPH
rain 1hr
in
rain 24hr
in
rain mn
in
humidity
%
barometer
mb
20260506183005 61 81 0.0 0.0 0.00 0.00 0.00 52 1011.0
20260506182004 61 72 0.0 0.0 0.00 0.00 0.00 51 1010.9
20260506181005 62 34 0.0 0.0 0.00 0.00 0.00 51 1010.9
20260506173004 62 64 0.0 1.0 0.00 0.00 0.00 50 1011.0
20260506171005 62 110 0.0 0.0 0.00 0.00 0.00 48 1011.1
20260506170005 62 110 0.0 0.0 0.00 0.00 0.00 49 1011.2
20260506165004 62 115 0.0 0.0 0.00 0.00 0.00 47 1011.2
20260506163004 61 109 0.0 0.0 0.00 0.00 0.00 50 1011.4
20260506162005 61 95 0.0 0.0 0.00 0.00 0.00 50 1011.5
20260506161005 62 114 0.0 0.0 0.00 0.00 0.00 50 1011.5
20260506155004 62 80 0.0 0.0 0.00 0.00 0.00 49 1011.7
20260506153005 63 207 0.0 0.0 0.00 0.00 0.00 49 1011.7
20260506152005 62 108 0.0 0.0 0.00 0.00 0.00 49 1011.8
20260506151005 61 114 0.0 0.0 0.00 0.00 0.00 50 1011.9
20260506150004 61 101 0.0 0.0 0.00 0.00 0.00 51 1012.0
20260506143004 63 105 0.0 2.0 0.00 0.00 0.00 50 1012.3
20260506142005 63 103 0.0 0.0 0.00 0.00 0.00 50 1012.5
20260506141005 61 66 0.0 0.0 0.00 0.00 0.00 51 1012.6
20260506140004 62 89 0.0 0.0 0.00 0.00 0.00 52 1012.7
20260506135004 61 236 0.0 0.0 0.00 0.00 0.00 52 1012.8
20260506134004 60 214 0.0 0.0 0.00 0.00 0.00 52 1013.0
20260506133004 60 121 0.0 0.0 0.00 0.00 0.00 52 1013.1
20260506132005 60 114 0.0 1.0 0.00 0.00 0.00 54 1013.1
20260506131005 60 109 0.0 0.0 0.00 0.00 0.00 53 1013.1
20260506125004 59 66 0.0 0.0 0.00 0.00 0.00 56 1013.3
20260506124005 59 131 0.0 1.0 0.00 0.00 0.00 55 1013.4
20260506123004 58 103 0.0 0.0 0.00 0.00 0.00 56 1013.5
20260506122004 58 94 0.0 1.0 0.00 0.00 0.00 56 1013.5
20260506121004 59 60 0.0 0.0 0.00 0.00 0.00 56 1013.6
20260506120005 60 73 0.0 0.0 0.00 0.00 0.00 54 1013.7
20260506115004 60 184 0.0 0.0 0.00 0.00 0.00 54 1013.7
20260506114005 60 331 0.0 0.0 0.00 0.00 0.00 53 1013.9
20260506113004 61 29 0.0 0.0 0.00 0.00 0.00 54 1014.0
20260506112004 59 103 0.0 0.0 0.00 0.00 0.00 55 1014.0
20260506111004 59 51 0.0 0.0 0.00 0.00 0.00 55 1014.2
20260506105005 58 55 0.0 0.0 0.00 0.00 0.00 56 1014.2
20260506104003 57 347 0.0 0.0 0.00 0.00 0.00 57 1014.3
20260506103004 56 60 0.0 0.0 0.00 0.00 0.00 58 1014.3
20260506101004 55 100 0.0 1.0 0.00 0.00 0.00 61 1014.4
20260506100004 55 56 0.0 0.0 0.00 0.00 0.00 64 1014.5
20260506095004 53 65 0.0 1.0 0.00 0.00 0.00 67 1014.5
20260506094005 53 76 0.0 0.0 0.00 0.00 0.00 69 1014.5
20260506093005 53 39 0.0 0.0 0.00 0.00 0.00 69 1014.6
20260506092004 53 89 0.0 0.0 0.00 0.00 0.00 69 1014.6
20260506091004 53 75 0.0 0.0 0.00 0.00 0.00 71 1014.6
20260506085004 51 83 0.0 1.0 0.00 0.00 0.00 77 1014.5
20260506084004 51 76 0.0 0.0 0.00 0.00 0.00 81 1014.6
20260506083005 50 88 0.0 0.0 0.00 0.00 0.00 83 1014.6
20260506082005 49 88 0.0 0.0 0.00 0.00 0.00 84 1014.6
20260506073004 45 103 0.0 0.0 0.00 0.00 0.00 87 1014.7
20260506072004 45 104 0.0 0.0 0.00 0.00 0.00 88 1014.7
20260506071004 44 105 0.0 0.0 0.00 0.00 0.00 89 1014.8
20260506062004 39 104 0.0 0.0 0.00 0.00 0.00 93 1014.7
20260506061004 38 104 0.0 0.0 0.00 0.00 0.00 93 1014.6
20260506051005 38 109 0.0 0.0 0.00 0.00 0.00 93 1014.2
20260506043005 39 109 0.0 0.0 0.00 0.00 0.00 93 1014.2
20260506042005 39 109 0.0 0.0 0.00 0.00 0.00 93 1014.2
20260506040004 39 109 0.0 0.0 0.00 0.00 0.00 93 1014.3
20260506035004 39 109 0.0 0.0 0.00 0.00 0.00 93 1014.4
20260506034004 40 109 0.0 0.0 0.00 0.00 0.00 92 1014.4
20260506033005 40 109 0.0 0.0 0.00 0.00 0.00 92 1014.4
20260506032004 41 109 0.0 0.0 0.00 0.00 0.00 92 1014.5
20260506031004 41 110 0.0 0.0 0.00 0.00 0.00 92 1014.5
20260506030005 41 110 0.0 0.0 0.00 0.00 0.00 91 1014.5
20260506025005 41 110 0.0 0.0 0.00 0.00 0.00 91 1014.4
20260506024005 42 111 0.0 0.0 0.00 0.00 0.00 92 1014.4
20260506022004 41 111 0.0 0.0 0.00 0.00 0.00 92 1014.3
20260506021004 41 111 0.0 0.0 0.00 0.00 0.00 92 1014.2
20260506020004 41 111 0.0 0.0 0.00 0.00 0.00 92 1014.1
20260506015004 41 111 0.0 0.0 0.00 0.00 0.00 91 1014.2
20260506014004 42 111 0.0 0.0 0.00 0.00 0.00 91 1014.3
20260506013005 42 111 0.0 0.0 0.00 0.00 0.00 90 1014.4
20260506012005 42 111 0.0 0.0 0.00 0.00 0.00 90 1014.5
20260506011004 43 188 0.0 0.0 0.00 0.00 0.00 90 1014.4
20260506010004 43 188 0.0 0.0 0.00 0.00 0.00 90 1014.4
20260506005004 43 188 0.0 0.0 0.00 0.00 0.00 91 1014.6
20260506004004 43 188 0.0 0.0 0.00 0.00 0.00 91 1014.6
20260506003005 43 188 0.0 0.0 0.00 0.00 0.00 90 1014.7
20260506001004 43 188 0.0 0.0 0.00 0.00 0.00 89 1014.7
20260506000005 44 188 0.0 0.0 0.00 0.00 0.00 89 1014.6
20260505235004 44 190 0.0 0.0 0.00 0.00 0.00 89 1014.7
20260505234004 45 190 0.0 0.0 0.00 0.00 0.00 88 1014.7
20260505232005 46 191 0.0 0.0 0.00 0.00 0.00 86 1014.7
20260505231004 47 192 0.0 0.0 0.00 0.00 0.00 86 1014.6
20260505230004 46 192 0.0 0.0 0.00 0.00 0.00 87 1014.6
20260505223004 46 192 0.0 0.0 0.00 0.00 0.00 86 1014.8
20260505222004 46 192 0.0 0.0 0.00 0.00 0.00 86 1014.8
20260505221004 46 192 0.0 0.0 0.00 0.00 0.00 86 1014.8
20260505220005 47 192 0.0 0.0 0.00 0.00 0.00 85 1014.7
20260505215005 47 198 0.0 0.0 0.00 0.00 0.00 83 1014.7
20260505212005 50 202 0.0 0.0 0.00 0.00 0.00 79 1014.5
20260505211004 50 202 0.0 0.0 0.00 0.00 0.00 79 1014.6
20260505210004 50 202 0.0 0.0 0.00 0.00 0.00 78 1014.6
20260505205004 50 203 0.0 0.0 0.00 0.00 0.00 77 1014.5
20260505204004 50 203 0.0 0.0 0.00 0.00 0.00 78 1014.4
20260505202005 51 208 0.0 0.0 0.00 0.00 0.00 76 1014.3
20260505201005 51 76 0.0 0.0 0.00 0.00 0.00 74 1014.3
20260505200004 51 76 0.0 0.0 0.00 0.00 0.00 75 1014.1
20260505195004 51 74 0.0 0.0 0.00 0.00 0.00 75 1014.0
20260505194004 51 74 0.0 0.0 0.00 0.00 0.00 75 1013.8
20260505193005 51 74 0.0 0.0 0.00 0.00 0.00 76 1013.8
20260505192005 51 61 0.0 0.0 0.00 0.00 0.00 76 1013.6
20260505191004 51 62 0.0 0.0 0.00 0.00 0.00 77 1013.6